FW1048 Weather Reports


time (UTC)temp
F
wind
direction
speed
knots
gust
knots
rain 1hr
in
rain 24hr
in
rain mn
in
humidity
%
barometer
mb
20260504214807 55 331 0.0 0.9 0.00 0.00 0.00 79 1016.1
20260504214307 56 331 0.9 1.7 0.00 0.00 0.00 79 1016.0
20260504213806 56 331 0.9 2.6 0.00 0.00 0.00 79 1016.0
20260504213307 56 330 0.9 2.6 0.00 0.00 0.00 78 1016.0
20260504211806 56 330 0.0 1.7 0.00 0.00 0.00 77 1016.2
20260504211306 56 330 0.9 1.7 0.00 0.00 0.00 77 1016.2
20260504210806 57 330 0.0 1.7 0.00 0.00 0.00 76 1016.2
20260504210307 57 331 0.0 1.7 0.00 0.00 0.00 77 1016.1
20260504205806 57 331 0.9 1.7 0.00 0.00 0.00 75 1016.1
20260504205306 57 331 0.9 1.7 0.00 0.00 0.00 75 1016.1
20260504204806 57 331 0.0 1.7 0.00 0.00 0.00 75 1016.1
20260504204306 57 330 0.9 2.6 0.00 0.00 0.00 74 1016.1
20260504203306 58 331 0.9 2.6 0.00 0.00 0.00 74 1016.1
20260504202807 58 330 0.9 2.6 0.00 0.00 0.00 72 1016.0
20260504202306 58 331 0.9 2.6 0.00 0.00 0.00 72 1016.0
20260504201806 59 330 0.0 2.6 0.00 0.00 0.00 72 1016.0
20260504200806 59 308 0.0 2.6 0.00 0.00 0.00 71 1016.0
20260504195306 60 307 1.7 2.6 0.00 0.00 0.00 70 1016.1
20260504194806 60 308 0.9 2.6 0.00 0.00 0.00 70 1016.0
20260504194307 60 309 1.7 2.6 0.00 0.00 0.00 70 1015.9
20260504193807 60 296 0.9 2.6 0.00 0.00 0.00 70 1015.9
20260504192806 60 294 1.7 4.3 0.00 0.00 0.00 70 1015.8
20260504192306 60 290 0.9 2.6 0.00 0.00 0.00 70 1015.8
20260504191306 60 289 1.7 4.3 0.00 0.00 0.00 71 1015.7
20260504190806 60 318 1.7 2.6 0.00 0.00 0.00 69 1015.7
20260504190306 61 318 0.9 2.6 0.00 0.00 0.00 69 1015.6
20260504185806 61 319 0.9 2.6 0.00 0.00 0.00 68 1015.6
20260504185306 61 317 1.7 2.6 0.00 0.00 0.00 68 1015.4
20260504184806 62 317 0.9 2.6 0.00 0.00 0.00 69 1015.4
20260504184307 62 317 1.7 2.6 0.00 0.00 0.00 66 1015.3
20260504183807 62 318 1.7 2.6 0.00 0.00 0.00 67 1015.2
20260504183306 63 317 0.9 2.6 0.00 0.00 0.00 65 1015.2
20260504182806 63 317 0.9 2.6 0.00 0.00 0.00 65 1015.1
20260504182306 64 318 1.7 2.6 0.00 0.00 0.00 64 1015.1
20260504181807 64 317 0.9 1.7 0.00 0.00 0.00 62 1015.1
20260504180806 65 319 1.7 4.3 0.00 0.00 0.00 60 1015.0
20260504180306 66 318 1.7 4.3 0.00 0.00 0.00 59 1015.0
20260504175806 67 312 1.7 7.0 0.00 0.00 0.00 57 1014.9
20260504175307 67 148 1.7 7.0 0.00 0.00 0.00 55 1014.8
20260504174806 68 209 0.9 2.6 0.00 0.00 0.00 54 1014.7
20260504174306 68 229 0.9 6.1 0.00 0.00 0.00 54 1014.7
20260504173807 68 126 2.6 6.1 0.00 0.00 0.00 54 1014.7
20260504173306 68 175 0.9 4.3 0.00 0.00 0.00 53 1014.7
20260504172806 68 171 2.6 5.2 0.00 0.00 0.00 52 1014.7
20260504172306 69 113 1.7 5.2 0.00 0.00 0.00 51 1014.7
20260504171806 69 154 2.6 5.2 0.00 0.00 0.00 51 1014.7
20260504171305 69 166 1.7 6.1 0.00 0.00 0.00 51 1014.6
20260504170306 69 123 4.3 6.1 0.00 0.00 0.00 50 1014.6
20260504160305 72 127 2.6 7.0 0.00 0.00 0.00 48 1014.7
20260504150805 73 102 4.3 8.7 0.00 0.00 0.00 46 1015.0
20260504141306 76 117 6.1 11.3 0.00 0.00 0.00 44 1015.0
20260504140805 76 112 6.1 12.2 0.00 0.00 0.00 44 1014.9
20260504140305 76 113 6.1 12.2 0.00 0.00 0.00 42 1015.0
20260504130806 76 106 2.6 2.6 0.00 0.00 0.00 44 1015.6
20260504120306 78 151 4.3 8.7 0.00 0.00 0.00 42 1015.6
20260504110305 77 114 3.5 8.7 0.00 0.00 0.00 41 1015.9
20260504081305 63 124 1.7 2.6 0.00 0.00 0.00 71 1017.4
20260504080804 63 125 0.9 2.6 0.00 0.00 0.00 70 1017.3
20260504080306 62 124 1.7 2.6 0.00 0.00 0.00 70 1017.4
20260504070304 57 117 0.9 2.6 0.00 0.00 0.00 77 1017.7
20260504050304 45 135 0.0 0.0 0.00 0.00 0.00 95 1017.6
20260504045804 44 135 0.0 0.0 0.00 0.00 0.00 94 1017.6
20260504045304 44 135 0.0 0.0 0.00 0.00 0.00 94 1017.6
20260504044805 44 135 0.0 0.0 0.00 0.00 0.00 94 1017.5
20260504044305 44 135 0.0 0.0 0.00 0.00 0.00 94 1017.5
20260504043804 44 135 0.0 0.0 0.00 0.00 0.00 94 1017.5
20260504042805 44 135 0.0 0.0 0.00 0.00 0.00 94 1017.4
20260504042304 44 135 0.0 0.9 0.00 0.00 0.00 94 1017.3
20260504041804 44 135 0.9 0.9 0.00 0.00 0.00 93 1017.3
20260504041306 45 135 0.0 0.0 0.00 0.00 0.00 94 1017.3
20260504040805 45 316 0.0 0.0 0.00 0.00 0.00 94 1017.3
20260504040304 45 316 0.0 0.0 0.00 0.00 0.00 94 1017.3
20260504035806 45 316 0.0 0.0 0.00 0.00 0.00 94 1017.3
20260504034805 45 316 0.0 0.0 0.00 0.00 0.00 93 1017.3
20260504034304 45 316 0.0 0.0 0.00 0.00 0.00 93 1017.3
20260504033805 45 316 0.0 0.0 0.00 0.00 0.00 93 1017.3
20260504032805 45 316 0.0 0.9 0.00 0.00 0.00 93 1017.3
20260504032304 45 316 0.0 0.0 0.00 0.00 0.00 93 1017.2
20260504031804 45 316 0.0 0.0 0.00 0.00 0.00 93 1017.2
20260504031304 45 316 0.0 0.0 0.00 0.00 0.00 93 1017.2
20260504030304 45 316 0.0 0.0 0.00 0.00 0.00 93 1017.2
20260504025804 45 316 0.0 0.0 0.00 0.00 0.00 93 1017.3
20260504025305 45 316 0.0 0.9 0.00 0.00 0.00 93 1017.4
20260504024304 46 316 0.9 0.9 0.00 0.00 0.00 92 1017.4
20260504023804 46 315 0.0 0.0 0.00 0.00 0.00 93 1017.5
20260504023304 46 315 0.0 0.0 0.00 0.00 0.00 93 1017.5
20260504022804 46 315 0.0 0.0 0.00 0.00 0.00 93 1017.5
20260504021804 46 315 0.0 0.0 0.00 0.00 0.00 92 1017.4
20260504021304 46 315 0.0 0.0 0.00 0.00 0.00 92 1017.4
20260504020804 46 315 0.0 0.9 0.00 0.00 0.00 92 1017.4
20260504015304 47 315 0.0 1.7 0.00 0.00 0.00 92 1017.5
20260504014804 47 315 0.9 1.7 0.00 0.00 0.00 92 1017.5
20260504014304 47 315 0.0 0.9 0.00 0.00 0.00 92 1017.4
20260504013804 47 315 0.0 0.9 0.00 0.00 0.00 92 1017.4
20260504013304 47 315 0.0 0.9 0.00 0.00 0.00 92 1017.4
20260504012304 47 315 0.9 1.7 0.00 0.00 0.00 91 1017.4
20260504011804 48 315 0.0 1.7 0.00 0.00 0.00 92 1017.4
20260504011305 48 315 0.0 0.9 0.00 0.00 0.00 91 1017.4
20260504010804 48 315 0.0 0.9 0.00 0.00 0.00 91 1017.4
20260504010304 48 315 0.0 0.9 0.00 0.00 0.00 91 1017.4
20260504005305 48 314 0.0 1.7 0.00 0.00 0.00 92 1017.3
20260504004803 48 315 0.9 1.7 0.00 0.00 0.00 92 1017.4
20260504004305 48 314 0.0 1.7 0.00 0.00 0.00 91 1017.4
20260504003803 48 314 0.9 1.7 0.00 0.00 0.00 92 1017.4
20260504003304 48 314 0.0 1.7 0.00 0.00 0.00 91 1017.4
20260504002804 48 314 0.9 1.7 0.00 0.00 0.00 92 1017.4
20260504002304 48 314 0.9 1.7 0.00 0.00 0.00 92 1017.4
20260504001303 48 314 0.0 0.0 0.00 0.00 0.00 92 1017.4
20260504000304 48 314 0.0 0.0 0.00 0.00 0.00 91 1017.4
20260503235804 48 314 0.0 0.0 0.00 0.00 0.00 91 1017.4
20260503235304 48 313 0.0 0.0 0.00 0.00 0.00 91 1017.5
20260503234804 48 314 0.0 0.0 0.00 0.00 0.00 91 1017.5
20260503234304 48 314 0.0 0.0 0.00 0.00 0.00 91 1017.5
20260503233803 48 313 0.0 0.0 0.00 0.00 0.00 90 1017.4
20260503233304 49 313 0.0 0.9 0.00 0.00 0.00 90 1017.4
20260503231804 49 313 0.0 0.9 0.00 0.00 0.00 90 1017.4
20260503231304 49 313 0.0 0.9 0.00 0.00 0.00 90 1017.4
20260503230304 49 312 0.0 0.9 0.00 0.00 0.00 89 1017.4
20260503225323 49 312 0.0 0.0 0.00 0.00 0.00 89 1017.4
20260503224823 49 311 0.0 1.7 0.00 0.00 0.00 89 1017.4
20260503224323 49 311 0.0 1.7 0.00 0.00 0.00 89 1017.4
20260503223823 50 311 0.9 1.7 0.00 0.00 0.00 88 1017.3
20260503222824 50 312 0.0 0.0 0.00 0.00 0.00 89 1017.3
20260503222323 50 312 0.0 1.7 0.00 0.00 0.00 88 1017.3
20260503221824 50 312 0.0 1.7 0.00 0.00 0.00 88 1017.3
20260503221323 50 311 0.0 0.0 0.00 0.00 0.00 88 1017.3
20260503220831 50 311 0.0 1.7 0.00 0.00 0.00 87 1017.2
20260503220324 51 313 0.0 1.7 0.00 0.00 0.00 87 1017.2
20260503215823 51 313 0.0 0.9 0.00 0.00 0.00 86 1017.2